Total_Precipitation_Accumulation
0.00 0.00 0.00 0.01 0.01 0.01 0.01 0.02 0.04 0.06 0.04 0.05 0.12 0.23 0.33 0.46 0.51 0.49 0.41 0.43 0.47 0.60 0.74 0.86 1.06 1.29 1.53 1.80 2.11 2.42 2.66 2.82 2.71 2.47 2.24 2.05 1.89 1.81 1.64 1.54 1.48 1.43 1.43 1.52
0.01 0.02 0.01 0.01 0.01 0.01 0.02 0.04 0.05 0.08 0.06 0.08 0.17 0.29 0.43 0.46 0.53 0.54 0.43 0.38 0.48 0.69 0.77 0.99 1.17 1.24 1.42 1.69 2.09 2.36 2.67 2.77 2.57 2.29 2.11 2.03 2.00 1.74 1.53 1.53 1.52 1.52 1.57 1.58
0.01 0.02 0.01 0.01 0.02 0.03 0.04 0.03 0.05 0.06 0.07 0.13 0.18 0.38 0.60 0.49 0.51 0.52 0.48 0.49 0.60 0.87 1.18 1.30 1.20 1.22 1.34 1.52 1.76 1.95 2.05 2.02 1.91 1.89 1.93 1.94 1.95 1.73 1.67 1.75 1.80 1.77 1.78 1.74
0.01 0.01 0.02 0.02 0.03 0.03 0.05 0.03 0.03 0.04 0.06 0.14 0.17 0.42 0.76 0.65 0.51 0.57 0.60 0.58 0.85 1.07 1.02 1.05 1.13 1.22 1.33 1.45 1.63 1.79 1.77 1.62 1.51 1.56 1.74 1.82 1.79 1.75 1.90 2.14 2.06 1.84 1.69 1.54
0.03 0.02 0.03 0.03 0.03 0.03 0.03 0.02 0.02 0.03 0.04 0.08 0.13 0.34 0.71 0.73 0.72 0.63 0.60 0.74 1.01 0.95 0.81 0.84 0.97 1.07 1.11 1.23 1.31 1.47 1.56 1.48 1.44 1.46 1.53 1.64 1.68 1.67 1.68 1.68 1.64 1.53 1.38 1.19
0.04 0.04 0.03 0.02 0.02 0.02 0.02 0.03 0.05 0.07 0.09 0.17 0.21 0.29 0.59 0.77 0.65 0.51 0.56 0.67 0.81 0.79 0.74 0.78 0.81 0.85 0.92 1.01 1.01 1.00 1.08 1.16 1.22 1.25 1.29 1.31 1.28 1.25 1.19 1.12 1.09 1.04 0.96 0.79
0.07 0.07 0.04 0.03 0.03 0.03 0.03 0.05 0.19 0.39 0.40 0.44 0.29 0.39 0.79 0.71 0.54 0.53 0.62 0.62 0.57 0.56 0.57 0.66 0.68 0.69 0.75 0.80 0.78 0.78 0.83 0.94 0.96 0.91 0.95 0.96 0.95 0.90 0.83 0.83 0.81 0.78 0.72 0.62
0.15 0.18 0.08 0.04 0.04 0.03 0.04 0.05 0.17 0.29 0.29 0.36 0.33 0.65 1.09 0.75 0.57 0.59 0.58 0.51 0.46 0.45 0.46 0.55 0.62 0.65 0.65 0.63 0.64 0.66 0.69 0.73 0.71 0.67 0.69 0.70 0.73 0.71 0.67 0.67 0.60 0.57 0.58 0.59
0.10 0.08 0.05 0.05 0.07 0.06 0.05 0.04 0.06 0.16 0.16 0.20 0.36 0.65 0.75 0.51 0.45 0.51 0.51 0.46 0.48 0.48 0.45 0.44 0.45 0.49 0.49 0.46 0.46 0.51 0.60 0.64 0.66 0.65 0.63 0.59 0.59 0.57 0.52 0.48 0.46 0.45 0.47 0.50
0.03 0.04 0.05 0.04 0.05 0.07 0.06 0.06 0.09 0.12 0.14 0.17 0.26 0.53 0.65 0.50 0.43 0.33 0.27 0.21 0.21 0.23 0.23 0.22 0.22 0.23 0.24 0.27 0.34 0.41 0.45 0.46 0.49 0.51 0.53 0.53 0.49 0.44 0.38 0.35 0.36 0.35 0.37 0.41
0.02 0.02 0.04 0.05 0.06 0.06 0.06 0.05 0.06 0.06 0.07 0.12 0.20 0.38 0.31 0.32 0.29 0.26 0.20 0.14 0.13 0.11 0.12 0.16 0.18 0.21 0.23 0.27 0.34 0.42 0.44 0.44 0.46 0.45 0.45 0.45 0.43 0.40 0.35 0.30 0.29 0.30 0.33 0.36
0.01 0.01 0.02 0.04 0.07 0.06 0.06 0.05 0.05 0.07 0.06 0.08 0.13 0.24 0.15 0.18 0.18 0.17 0.17 0.14 0.14 0.15 0.15 0.17 0.17 0.23 0.28 0.28 0.29 0.35 0.39 0.44 0.53 0.61 0.69 0.70 0.62 0.53 0.44 0.35 0.30 0.29 0.32 0.35
0.01 0.01 0.03 0.11 0.18 0.10 0.08 0.07 0.07 0.07 0.06 0.07 0.13 0.23 0.11 0.08 0.09 0.14 0.32 0.39 0.28 0.18 0.11 0.11 0.14 0.20 0.26 0.30 0.32 0.36 0.39 0.43 0.52 0.67 0.91 1.02 0.94 0.80 0.61 0.43 0.29 0.24 0.24 0.27
0.01 0.01 0.02 0.06 0.08 0.07 0.08 0.07 0.06 0.05 0.08 0.07 0.10 0.21 0.14 0.08 0.04 0.03 0.06 0.10 0.14 0.12 0.09 0.08 0.11 0.17 0.22 0.29 0.37 0.42 0.45 0.44 0.50 0.62 0.78 0.85 0.78 0.68 0.55 0.37 0.24 0.19 0.19 0.21
0.01 0.01 0.00 0.01 0.03 0.04 0.07 0.08 0.07 0.06 0.06 0.11 0.09 0.12 0.08 0.03 0.03 0.04 0.04 0.07 0.11 0.12 0.10 0.08 0.11 0.16 0.19 0.23 0.30 0.32 0.28 0.23 0.28 0.40 0.46 0.51 0.45 0.35 0.30 0.25 0.20 0.18 0.20 0.21
0.01 0.01 0.00 0.01 0.02 0.04 0.06 0.09 0.07 0.04 0.03 0.02 0.03 0.04 0.02 0.03 0.09 0.13 0.09 0.08 0.09 0.09 0.08 0.08 0.11 0.16 0.17 0.16 0.17 0.13 0.12 0.13 0.17 0.24 0.28 0.34 0.36 0.29 0.23 0.19 0.16 0.15 0.18 0.22
0.02 0.02 0.01 0.01 0.03 0.03 0.09 0.09 0.06 0.03 0.02 0.02 0.04 0.05 0.04 0.04 0.06 0.09 0.08 0.05 0.04 0.04 0.03 0.03 0.06 0.08 0.06 0.05 0.05 0.06 0.07 0.11 0.17 0.22 0.27 0.35 0.37 0.33 0.29 0.21 0.19 0.19 0.21 0.23
0.04 0.03 0.02 0.01 0.03 0.10 0.10 0.05 0.04 0.04 0.04 0.04 0.05 0.05 0.06 0.07 0.06 0.08 0.10 0.07 0.04 0.02 0.02 0.01 0.01 0.01 0.01 0.01 0.02 0.03 0.05 0.10 0.15 0.21 0.26 0.31 0.36 0.34 0.31 0.31 0.32 0.33 0.31 0.29
0.04 0.04 0.03 0.02 0.04 0.09 0.06 0.05 0.05 0.06 0.06 0.05 0.06 0.08 0.09 0.10 0.09 0.09 0.07 0.04 0.02 0.01 0.01 0.01 0.01 0.01 0.01 0.01 0.02 0.04 0.08 0.10 0.13 0.20 0.28 0.32 0.37 0.38 0.37 0.38 0.40 0.41 0.40 0.36
0.04 0.05 0.05 0.04 0.07 0.10 0.07 0.07 0.08 0.07 0.17 0.17 0.13 0.11 0.07 0.05 0.06 0.03 0.01 0.00 0.00 0.00 0.00 0.01 0.01 0.01 0.01 0.03 0.06 0.10 0.12 0.14 0.18 0.23 0.30 0.36 0.41 0.45 0.45 0.47 0.47 0.46 0.49 0.43
0.03 0.04 0.05 0.07 0.09 0.08 0.04 0.06 0.06 0.14 0.22 0.10 0.04 0.03 0.02 0.05 0.06 0.03 0.01 0.01 0.00 0.00 0.01 0.01 0.02 0.03 0.05 0.09 0.13 0.15 0.16 0.18 0.19 0.22 0.28 0.38 0.44 0.50 0.53 0.58 0.60 0.59 0.58 0.56
0.02 0.03 0.04 0.07 0.13 0.14 0.05 0.03 0.05 0.07 0.05 0.03 0.02 0.03 0.03 0.03 0.02 0.01 0.01 0.01 0.00 0.00 0.01 0.01 0.02 0.04 0.06 0.11 0.15 0.18 0.19 0.19 0.21 0.26 0.34 0.41 0.46 0.44 0.47 0.63 0.68 0.71 0.73 0.69
0.01 0.02 0.02 0.05 0.07 0.04 0.02 0.03 0.04 0.04 0.05 0.04 0.04 0.03 0.03 0.03 0.02 0.02 0.02 0.01 0.01 0.01 0.02 0.03 0.04 0.06 0.10 0.14 0.20 0.25 0.24 0.27 0.29 0.33 0.40 0.45 0.47 0.51 0.60 0.69 0.73 0.77 0.82 0.80
0.01 0.01 0.02 0.05 0.03 0.02 0.02 0.03 0.03 0.03 0.03 0.03 0.02 0.02 0.02 0.03 0.03 0.03 0.03 0.03 0.03 0.04 0.04 0.05 0.07 0.09 0.13 0.17 0.23 0.30 0.35 0.39 0.41 0.42 0.43 0.46 0.51 0.53 0.58 0.69 0.75 0.80 0.85 0.89
0.01 0.01 0.03 0.06 0.04 0.03 0.03 0.02 0.01 0.01 0.01 0.01 0.01 0.02 0.03 0.04 0.04 0.04 0.04 0.05 0.06 0.05 0.05 0.07 0.12 0.16 0.18 0.23 0.29 0.33 0.40 0.47 0.51 0.51 0.49 0.49 0.52 0.59 0.66 0.71 0.76 0.75 0.81 0.79
0.01 0.02 0.04 0.06 0.05 0.05 0.05 0.02 0.01 0.01 0.01 0.02 0.02 0.03 0.03 0.04 0.04 0.04 0.05 0.06 0.06 0.06 0.08 0.11 0.14 0.17 0.20 0.25 0.33 0.36 0.45 0.54 0.62 0.64 0.64 0.60 0.56 0.62 0.68 0.73 0.70 0.61 0.56 0.54